STARLINK-32253

Last updated on Sat Sep 28 2024 00:02:03 GMT+0000 (Coordinated Universal Time)

1 60733U 24152P 24271.58334491 -.01594190 00000+0 -40899-1 0 9997 2 60733 53.1592 201.4995 0001104 73.6214 308.3165 15.42086293 6018
UTC large
Height (km)
Speed (km/s)
/
Latitude / Longitude
Inclination (degrees)
Orbital Period (minutes)
Azimuth
Elevation
Range (km)
Doppler Factor

Next 0 passes for location: London (51.5072 / 0.1276)

Sorry there are no passes over London.